STARLINK-32113, 60282

Orbit data source: Space-Track

STARLINK-32113, 60282 is a payload satellite owned by SpaceX/Seattle (US) in LEO that was launched on Sun, 28 Jul 2024 UTC via an FALCON 9 launch vehicle from the Air Force Eastern Test Range (AFETR). Payloads include a variety of satellites, spacecraft, and rockets equipped with specific instruments for various scientific and technological missions. These include communications satellites like Starlink; space stations such as the ISS; scientific satellites like the Hubble; Earth observation satellites from companies like Planet Labs, Umbra, and HawkEye 360; GPS; miniature CubeSats for education and research; and military/defense satellites.

Loading next visibility...
STARLINK-32113 details
Identifier
60282, 2024-132E
Orbit
LEO
Last TLE update16 hours ago
Origin
Flag of USSpaceX/Seattle (US)
ManufacturerSpaceX/Seattle
MissionOperational spacecraft
Bus & MotorSTARLINK V2M, Unknown motor
Mass730 kg wet, ~700 kg dry
Launch date (UTC)
2024-07-28 (5 months ago)
Launch vehicle
FALCON 9
Launch site
Air Force Eastern Test Range (AFETR)
Object type
Payload
Rocket body
Debris
Shape & HBRUnknown
Radar Cross SectionLarge (>1 m²)

Expand to show TLE details & history

TLE from 16 hours ago
0 STARLINK-32113
1 60282U 24132E   24355.88573884  .00001248  00000-0  54280-4 0  9998
2 60282  53.1625 313.7414 0001836  81.0667 279.0541 15.30190615 23612
Epoch: 2024-12-20T21:15Z
Definitive object data (Epoch: 2024-12-20T21:15:27.835Z)
Latitude-0.00008°
Longitude-95.06947°
Altitude475.945 km
Speed7.629 km/s
True Right ascension20h 54m 57s
True Declination0° 00' 00"
Sunlit
Object was in daylight at TLE epoch
Visualization TLE readout
Latitude11.97419°
Longitude-89.02575°
Altitude474.901 km
Speed7.631 km/s
Apparent Right ascension22h 27m 15s
Apparent Declination-13° 42' 16"
Sunlit
Object is in daylight
Visualization observer readout
Local Sidereal Time12:01:47
Azimuth45.003° ENE
Elevation-56.582°
Doppler factor1
Orbital elements
Apogee altitude476.757 km
Perigee altitude474.241 km
Semi-major axis6,853.636 km
Eccentricity0.0001836
Inclination53.1625°
RAAN313.7414°
Arg. of periapsis81.0667°
True anomaly279.03332°
Mean anomaly279.0541°
Eccentric anomaly279.04371°
Mean motion3.82527 °/min
BSTAR0.00005428
Orbital period94.11 mins
Loading maneuver chart data...
Loading historical data...
Loading historical data...
Loading historical data...
Loading historical data...
Loading historical data...
Loading historical data...
Loading historical data...

STARLINK-32113 Visibility forecast

Observer location: undefined°, undefined

Span
Click to sort rows by Start time (UTC) header in descending order
Start Az.
Max El. time (UTC)
Max El. Az.
Max El.
End time (UTC)
End Az.
6 mins2024-12-22 00:05:53.818Z231.945° WSW2024-12-22 00:07:53.818Z242.159° WSW42.357°2024-12-22 00:11:53.818Z48.976° ENE
4 mins2024-12-22 05:02:53.818Z342.256° N2024-12-22 05:04:53.818Z18.007° NNE16.511°2024-12-22 05:06:53.818Z55.773° ENE
6 mins2024-12-22 06:40:53.818Z313.431° NW2024-12-22 06:43:53.818Z106.855° ESE42.144°2024-12-22 06:46:53.818Z126.912° SE
|